Flag for Belgium Weather past 2 weeks in Namur, Belgium

Now
64 °F

Clear.


Feels Like: 64 °F
Forecast: 55 / 76 °F
Wind: 5 mph from North

Location: Charleroi / Gosselies

Current Time: Jul 5, 2015 at 6:57:24 AM

Latest Report: Jul 5, 2015 at 5:50 AM


Visibility: 10 mi

Pressure: 30.12 "Hg

Humidity: 73%

Dew point: 55 °F

Location of NamurLocation

Historic Weather in Namur — Graph

°F

Namur temperature yesterday

Maximum temperature yesterday: 90 °F (at 2:50 PM)
Minimum temperature yesterday: 70 °F (at 11:50 PM)
Average temperature yesterday: 80 °F

Past Weeks' High & Low Weather Summary

 TemperatureHumidityPressure
High91 °F (Jul 1, 2:50 PM)100% (Jun 21, 3:20 AM)30.27 "Hg (Jun 21, 3:20 AM)
Low46 °F (Jun 24, 3:50 AM)28% (Jun 30, 2:50 PM)29.74 "Hg (Jun 22, 6:20 PM)
Average67 °F66%30.10 "Hg
* Reported Jun 20 4:20 AM — Jul 5 4:50 AM, Namur, Weather by CustomWeather, © 2015

Note: Actual official high and low records may vary slightly from our data, if they occured in-between our weather recording intervals... More about our weather records

Advertising

Namur weather history for previous 24 hours

 ConditionsComfort  
Time TempWeatherWind HumidityBarometerVisibility
4:50 AM
Sun, Jul 5
66 °FClear.1 mph73%30.12 "Hg10 mi
4:20 AM66 °FPassing clouds.3 mph78%30.12 "HgN/A
3:50 AM66 °FClear.5 mph78%30.12 "Hg10 mi
3:20 AM68 °FClear.3 mph73%30.15 "Hg10 mi
1:50 AM68 °FClear.3 mph73%30.15 "Hg10 mi
1:20 AM70 °FPassing clouds.3 mph69%30.15 "HgN/A
12:50 AM68 °FPassing clouds.6 mph73%30.18 "HgN/A
12:20 AM70 °FPassing clouds.6 mph73%30.18 "HgN/A
11:50 PM
Sat, Jul 4
70 °FPassing clouds.6 mph73%30.15 "HgN/A
11:20 PM72 °FPassing clouds.6 mph73%30.15 "HgN/A
10:50 PM73 °FPassing clouds.3 mph69%30.15 "HgN/A
10:20 PM73 °FPassing clouds.3 mph65%30.15 "HgN/A
9:50 PM75 °FPassing clouds.5 mph61%30.15 "HgN/A
9:20 PM75 °FPassing clouds.6 mph61%30.15 "HgN/A
8:50 PM77 °FPassing clouds.6 mph61%30.12 "HgN/A
8:20 PM77 °FPassing clouds.7 mph61%30.15 "HgN/A
7:50 PM79 °FPassing clouds.6 mph61%30.12 "HgN/A
7:20 PM81 °FPassing clouds.7 mph58%30.12 "HgN/A
6:50 PM82 °FPassing clouds.5 mph55%30.12 "HgN/A
6:20 PM82 °FPassing clouds.5 mph55%30.12 "HgN/A
5:50 PM84 °FPassing clouds.7 mph51%30.12 "HgN/A
5:20 PM84 °FPassing clouds.8 mph55%30.15 "HgN/A
4:50 PM84 °FPassing clouds.7 mph51%30.15 "HgN/A
4:20 PM86 °FPassing clouds.8 mph49%30.15 "HgN/A
3:50 PM86 °FPassing clouds.9 mph49%30.15 "HgN/A
3:20 PM88 °FPassing clouds.6 mph43%30.12 "HgN/A
2:50 PM90 °FPassing clouds.3 mph41%30.12 "HgN/A
2:20 PM86 °FPassing clouds.6 mph49%30.12 "HgN/A
1:50 PM86 °FPassing clouds.3 mph49%30.12 "HgN/A
1:20 PM84 °FPassing clouds.10 mph51%30.12 "HgN/A
12:50 PM86 °FPassing clouds.13 mph52%30.15 "HgN/A
12:20 PM86 °FPassing clouds.13 mph52%30.12 "HgN/A
11:50 AM88 °FPassing clouds.6 mph49%30.12 "HgN/A
11:20 AM86 °FPassing clouds.6 mph55%30.09 "HgN/A
10:50 AM84 °FPassing clouds.8 mph55%30.12 "HgN/A
10:20 AM82 °FPassing clouds.9 mph58%30.09 "HgN/A
9:50 AM82 °FPassing clouds.12 mph55%30.09 "HgN/A
9:20 AM82 °FSunny.12 mph55%30.09 "Hg10 mi
8:50 AM82 °FPassing clouds.8 mph55%30.09 "HgN/A
8:20 AM81 °FSunny.9 mph58%30.07 "Hg10 mi
7:50 AM79 °FSunny.8 mph61%30.07 "Hg10 mi
7:20 AM77 °FSunny.9 mph61%30.07 "Hg10 mi
6:50 AM77 °FSunny.9 mph61%30.07 "Hg10 mi
6:20 AM77 °FClear.7 mph61%30.07 "Hg10 mi
Weather by CustomWeather, © 2015

See weather overviewHow to use our weather pages